Location: Curupao
(10.4996°N, 66.6442°W)
Time: 22:10:59
(UTC+00:00)

Cosmos 2341 Rocket - Pass Details

Date: 23 May 2024
Orbit: 968 x 1004 km, 82.9° (Epoch: 25 June)

Event Time Altitude Azimuth Distance (km) Brightness Sun altitude
Exits shadow 08:43:05 30° 230° (SW) 1,681 4.7 -19.0°
Maximum altitude 08:45:24 41° 274° (W) 1,393 4.4 -18.5°
Drops below altitude 10° 08:51:14 10° 343° (NNW) 2,724 6.4 -17.2°
Sets 08:53:53 0° 351° (N) 3,666 7.2 -16.6°
